Presure
99 98 89 111 110 110 121 146 103 146 145 121 130 90 118 124 117 151 130 263 279 189 105 122 264 257 195 135 74 143 276 137 131 90 102 104 99 130 83 102 100 99 93 102 105 130 99 148 106
135 106 93 119 175 139 151 187 183 187 136 129 154 236 137 181 240 204 206 249 252 255 235 281 215 198 222 159 74 268 132 171 221 154 114 170 114 132 124 133 110 123 120 127 126 133 131 132 145
151 84 201 149 112 231 226 140 111 197 167 234 215 162 220 182 247 269 259 261 255 311 257 99 254 254 330 209 131 189 83 259 252 237 218 204 198 196 90 79 142 128 191 130 135 133 131 132 125
132 253 245 130 218 101 208 167 227 238 244 229 160 222 260 232 257 82 265 156 349 361 161 248 243 169 221 215 221 241 249 224 241 180 215 129 170 231 217 219 106 88 132 143 142 132 133 138 129
179 169 177 163 224 167 152 215 228 203 200 249 248 249 161 253 235 238 275 302 339 387 266 336 245 384 241 245 249 216 211 226 295 204 244 216 210 192 222 161 159 129 145 147 124 142 118 125 133
134 169 209 226 232 220 152 222 170 227 227 226 216 243 253 247 271 268 297 256 334 353 264 238 263 279 276 231 227 190 205 202 216 172 230 89 161 150 158 231 196 208 209 96 213 156 171 144 141
198 236 225 214 232 200 212 217 203 223 230 253 252 244 272 265 263 253 267 244 245 254 272 251 231 161 254 227 212 293 203 236 195 205 75 228 219 205 215 190 108 97 98 92 147 188 118 209 172
238 185 236 236 214 211 164 211 207 206 137 223 250 231 254 265 253 228 261 264 229 252 264 246 239 251 248 235 222 245 253 221 205 194 210 207 214 215 202 200 195 176 113 198 90 110 103 100 114
219 213 202 205 191 213 210 204 218 217 202 240 244 229 220 259 255 234 243 252 246 258 245 249 229 228 225 223 216 225 239 226 199 200 207 194 203 202 207 206 192 190 198 171 191 182 102 93 111
206 197 207 203 205 211 211 204 208 210 212 216 243 224 218 214 234 231 234 231 233 244 250 240 250 218 219 219 222 224 207 229 222 213 195 198 199 201 205 198 200 194 205 190 193 213 182 181 148
201 194 213 204 197 208 200 193 210 204 207 237 240 228 218 271 278 229 222 237 217 240 237 245 229 217 218 216 225 206 205 211 207 214 195 197 190 182 191 201 195 205 189 196 199 214 203 202 133
197 204 204 204 192 196 205 201 195 200 191 205 243 223 224 207 262 244 222 239 217 228 235 229 247 240 217 228 204 194 216 194 199 194 203 190 194 175 190 173 192 195 108 206 187 204 165 182 188
206 206 193 200 199 192 194 201 193 213 200 199 228 241 214 201 287 253 242 231 217 217 215 189 239 230 228 222 213 212 192 206 220 194 191 194 178 186 198 190 199 193 188 201 199 214 156 212 194
205 203 202 205 207 189 197 186 187 185 199 215 228 241 224 216 234 272 217 233 216 206 251 228 199 227 213 202 206 202 202 196 197 190 193 190 195 180 176 185 187 161 195 196 155 173 176 194 194
196 197 197 205 202 200 203 184 213 192 202 195 191 233 235 205 214 278 265 231 236 192 221 202 207 189 177 212 202 199 200 205 200 197 196 182 211 194 206 178 206 208 191 199 203 197 179 185 197
191 206 187 199 197 192 192 186 178 182 201 189 197 221 234 225 218 285 270 260 225 205 182 212 205 190 207 180 196 191 193 193 189 189 188 186 204 117 178 179 182 189 177 196 191 197 200 189 188
197 195 199 201 184 198 196 192 206 178 202 188 194 220 233 215 212 241 279 263 255 225 205 215 204 192 176 169 201 193 178 175 195 173 175 191 177 180 183 175 176 195 175 167 142 184 189 182 184
198 194 198 201 189 190 207 178 200 184 188 195 192 199 218 228 204 213 278 280 257 246 228 204 198 213 184 181 181 189 176 176 190 194 171 171 195 199 191 174 163 175 194 185 182 178 191 162 175
183 198 189 204 164 187 204 197 172 175 214 181 193 196 211 225 225 204 272 260 264 245 240 238 202 193 201 202 203 187 192 176 205 193 186 168 149 207 180 177 163 184 188 185 171 165 213 202 164
189 196 194 192 182 186 198 197 177 165 214 185 186 187 220 227 219 214 211 253 261 263 257 233 213 196 194 201 187 199 192 184 171 171 190 175 157 178 154 198 182 159 160 172 194 186 166 166 206
193 190 196 198 192 186 194 198 168 185 157 213 191 181 199 227 219 212 200 257 275 254 241 240 233 235 196 187 201 185 194 184 188 181 172 133 136 171 154 165 161 160 172 175 201 170 176 171 176
196 193 188 199 186 192 190 186 182 198 172 199 194 195 190 228 218 216 207 222 269 250 255 229 239 244 237 195 188 205 182 182 191 190 176 181 191 179 178 177 135 153 161 186 191 177 182 172 186
189 191 191 180 196 186 190 176 189 184 180 142 183 215 183 202 221 210 204 209 264 250 245 248 255 232 246 254 221 246 190 201 196 184 180 157 155 123 164 118 125 124 166 191 166 181 175 170 189
197 196 194 194 180 189 178 181 176 199 143 137 184 206 189 199 206 216 202 207 212 243 234 240 239 241 233 251 241 238 216 202 189 177 183 185 176 176 176 142 143 168 186 183 181 178 171 174 182
193 197 193 190 194 177 181 175 182 164 158 195 181 194 181 192 204 219 191 199 205 247 242 227 234 236 240 234 245 236 236 253 244 234 190 182 179 181 175 188 181 183 187 190 181 189 185 182 181
200 195 201 206 179 176 184 181 185 189 187 196 197 201 189 212 191 214 214 201 192 199 229 241 223 217 219 234 226 227 234 239 245 241 203 233 192 195 191 185 205 217 204 196 194 190 187 186 189
196 201 197 199 194 184 182 175 185 185 190 187 190 200 168 170 182 217 192 207 193 195 223 227 265 232 216 222 224 218 224 229 233 232 217 233 235 186 138 219 216 218 213 185 190 189 201 200 191
196 198 198 196 186 184 178 181 183 183 188 176 194 190 202 182 206 201 213 196 210 192 194 217 225 264 238 226 223 215 222 214 218 221 225 226 227 225 223 220 216 212 187 204 204 233 205 176 201
200 187 197 194 198 191 176 179 180 184 191 189 183 193 195 169 197 193 211 208 205 186 195 192 212 225 264 246 238 229 215 221 222 214 216 215 216 214 213 219 228 240 237 231 225 229 230 235 233
204 200 195 198 195 186 193 176 177 187 196 190 192 190 194 199 189 189 192 211 209 184 182 196 193 211 231 260 235 240 240 221 215 220 215 223 215 223 223 221 223 229 232 231 197 233 217 231 191
Wind_Speed
51 54 32 64 63 62 57 78 61 77 76 62 63 35 59 58 45 70 60 67 66 74 58 53 64 64 71 46 20 74 58 80 67 30 33 44 48 67 21 44 28 26 34 39 42 61 39 72 39
67 46 41 70 60 78 58 59 69 60 67 62 38 61 52 75 66 66 72 63 61 65 62 61 59 42 47 73 25 54 57 33 53 64 42 62 33 73 68 71 46 63 64 67 60 63 60 58 71
74 25 50 78 63 45 50 66 62 52 68 53 63 61 63 72 62 60 63 65 65 49 59 32 50 50 36 54 43 71 29 45 51 57 70 56 65 54 33 23 84 66 82 63 70 63 60 61 55
71 40 43 71 48 54 55 79 49 46 45 54 75 57 52 58 54 24 60 71 37 39 63 45 43 46 56 53 51 40 43 33 43 50 65 42 51 57 65 44 46 33 56 79 80 65 69 71 51
56 63 62 67 44 65 64 51 47 55 58 44 45 46 64 50 49 33 36 35 32 27 23 16 44 24 50 55 46 57 46 24 33 38 50 58 58 68 57 55 39 34 55 55 40 77 49 59 70
60 63 46 39 41 42 60 45 56 50 47 47 48 44 46 47 39 26 27 28 22 10 25 29 26 33 36 55 55 41 55 52 46 35 44 41 41 51 48 35 32 37 37 32 36 36 43 79 74
51 32 37 41 32 44 47 45 57 47 43 38 37 36 34 35 31 23 22 20 18 9 18 28 33 32 43 57 52 30 58 49 67 54 26 36 44 51 41 49 39 41 36 44 53 41 48 38 42
22 58 29 28 34 43 64 45 51 55 63 43 34 32 33 28 26 30 18 10 16 16 23 31 34 34 38 44 49 42 50 55 55 65 38 48 44 42 59 61 65 66 42 70 49 40 39 45 43
29 33 42 39 53 40 41 46 43 46 50 39 32 30 36 27 21 18 21 14 18 18 20 33 38 42 46 48 55 47 49 51 55 52 52 57 48 53 55 55 66 69 64 57 64 71 49 48 51
38 43 36 37 38 36 33 42 41 45 45 39 29 28 28 30 19 15 19 19 14 20 27 33 36 47 46 49 47 43 48 47 49 51 55 45 41 49 55 61 61 66 63 70 67 56 59 59 61
41 44 31 33 42 35 40 46 33 43 44 35 30 26 23 19 15 15 17 17 17 25 29 22 44 47 52 48 44 50 49 44 45 50 49 45 52 62 59 53 55 63 72 68 62 52 54 49 66
40 35 35 32 45 39 34 31 39 40 47 40 32 25 27 26 18 19 15 18 18 24 31 34 31 43 53 47 52 51 49 53 52 52 52 58 56 66 63 67 61 69 47 56 66 59 68 57 47
36 33 41 35 35 39 34 29 36 34 42 39 35 35 23 24 16 18 19 19 27 26 32 26 39 44 52 52 50 53 51 54 53 54 55 59 58 65 54 64 59 67 71 64 60 59 43 49 44
36 33 32 32 30 39 33 37 40 47 40 36 32 37 26 24 23 17 27 22 30 30 28 42 22 50 49 51 54 53 58 55 56 54 52 62 57 63 60 62 68 53 64 53 40 23 30 47 38
39 38 36 30 29 31 32 34 34 34 37 39 33 36 27 24 22 16 21 26 27 31 45 36 41 27 37 56 54 51 55 54 59 60 61 50 59 62 52 52 55 60 60 64 67 59 32 46 65
44 36 40 32 28 33 33 28 43 38 32 40 38 30 31 21 18 19 19 25 31 41 32 56 40 32 51 34 52 57 52 53 55 50 51 55 57 39 51 47 52 54 49 63 64 73 71 58 59
41 36 39 29 32 35 35 31 32 41 30 37 41 32 32 20 20 22 18 22 29 37 48 51 51 42 38 42 59 61 41 37 61 42 35 54 42 46 47 43 48 63 48 28 50 62 69 62 61
39 42 40 29 28 32 30 35 28 35 36 29 39 33 28 32 21 23 16 18 26 35 41 53 47 62 40 44 43 55 44 41 59 68 40 39 62 59 65 52 24 44 69 56 64 50 77 40 54
43 44 42 28 48 34 27 32 40 39 33 42 39 36 29 36 28 21 18 14 16 31 37 41 56 48 62 61 65 58 68 45 66 60 72 38 46 67 63 59 36 59 68 69 49 36 75 83 38
43 46 43 29 34 31 26 32 37 43 30 36 39 35 34 37 30 22 21 19 16 15 22 34 63 57 57 66 53 68 70 68 43 43 63 53 51 64 26 59 57 34 29 56 77 82 45 44 83
47 50 41 31 31 34 27 31 44 34 35 29 33 39 34 35 32 22 17 24 13 14 22 27 34 37 62 53 70 55 73 60 73 67 52 42 35 52 55 41 36 35 62 71 79 57 67 64 83
47 51 36 32 35 31 26 28 34 29 27 22 29 27 34 35 32 30 22 27 15 14 13 26 26 28 39 69 53 72 56 58 76 77 63 69 76 77 75 69 46 62 60 84 82 83 85 69 87
49 46 40 40 31 29 30 25 36 30 27 34 34 30 36 27 30 30 22 24 17 15 15 12 14 25 27 28 55 42 62 85 75 72 69 40 58 38 47 33 36 37 57 84 54 85 84 65 93
48 49 47 41 31 29 33 21 51 28 30 38 32 24 26 24 30 30 25 25 28 17 17 14 16 18 24 26 36 43 65 80 68 60 73 78 68 73 78 48 50 61 89 95 92 82 63 72 86
52 52 50 33 33 39 37 32 45 32 37 28 36 27 30 23 27 29 23 22 26 21 19 16 17 18 17 22 23 32 35 26 37 49 77 74 73 83 72 92 83 90 93 95 86 97 99 89 87
58 52 46 38 42 40 36 34 39 31 32 27 26 30 29 30 22 27 27 24 19 23 23 21 20 21 23 21 24 28 26 28 32 38 78 48 81 83 81 74 95 83 95 90 91 95 92 90 95
55 50 51 41 36 36 39 45 38 36 31 36 28 33 34 31 28 27 22 23 24 20 29 21 21 23 26 27 26 31 31 30 32 37 54 46 45 69 42 60 69 77 72 74 82 81 94 71 91
57 55 49 41 42 43 43 39 40 45 33 45 36 35 34 35 32 24 24 21 25 27 21 28 22 20 25 30 33 35 35 37 39 42 45 51 53 59 63 66 73 84 68 92 93 66 79 49 67
60 50 54 51 45 42 47 40 47 48 41 42 46 37 33 38 34 28 29 25 23 27 30 23 29 23 24 25 26 36 39 41 45 47 47 47 51 54 56 59 62 60 58 64 66 59 60 56 60
61 58 54 50 46 46 42 48 50 56 51 44 47 42 40 40 34 35 32 28 26 28 31 28 25 30 21 27 29 32 37 45 43 43 45 47 48 47 51 54 55 52 50 49 49 55 64 52 53
Wind_Direction
280 283 287 278 272 270 279 274 277 274 275 273 275 290 276 275 282 277 270 279 278 271 280 282 268 267 261 276 301 255 252 256 259 274 255 253 262 259 261 288 281 278 261 268 260 271 264 265 270
270 273 291 273 275 274 277 278 278 281 277 278 283 283 286 280 283 282 279 283 278 274 274 270 263 264 262 256 276 259 255 259 243 255 263 253 256 257 261 259 271 259 265 265 270 271 271 267 268
272 289 283 269 282 283 283 277 275 282 281 288 283 285 284 280 290 296 289 284 276 281 267 279 263 257 261 257 277 251 275 242 236 237 246 252 247 249 263 273 254 258 253 260 261 266 264 266 267
274 286 285 277 281 274 282 271 287 292 294 287 279 289 293 293 295 260 287 279 312 294 270 262 245 252 239 240 235 235 244 240 236 238 242 250 255 245 244 249 273 260 260 256 258 261 264 267 265
279 272 275 273 284 281 283 283 289 288 288 298 300 300 286 298 293 297 307 314 325 300 256 253 244 243 219 230 225 224 227 221 240 249 239 242 244 245 243 260 253 259 263 257 268 258 269 262 263
272 271 278 283 285 287 286 290 285 294 294 292 295 304 302 294 305 320 322 317 342 313 204 218 231 210 196 221 225 231 227 222 231 238 232 264 243 248 250 233 241 236 242 262 246 256 260 259 261
284 284 281 280 287 282 283 289 287 299 306 310 316 308 319 311 319 321 322 324 308 243 193 193 211 248 211 226 235 189 227 199 236 225 276 214 225 235 222 233 262 250 253 255 258 247 266 254 262
287 282 284 288 277 279 283 289 290 290 285 306 320 304 316 320 325 295 310 278 301 225 193 192 203 206 203 215 224 198 187 205 221 235 215 224 221 213 230 239 242 249 263 246 261 264 256 266 264
286 282 280 281 283 286 287 290 304 307 295 318 322 308 302 320 316 314 321 278 265 194 204 192 208 204 209 208 221 212 185 204 223 222 205 236 234 238 234 238 246 250 247 258 251 255 253 265 263
281 280 280 282 285 287 292 294 303 303 304 309 323 303 308 298 300 299 309 264 251 217 193 198 195 221 218 214 212 206 217 198 203 205 224 224 232 238 241 246 246 246 246 247 250 258 260 258 261
278 279 279 280 282 287 290 291 308 303 305 324 325 317 310 319 302 291 286 252 244 229 212 219 205 217 220 219 200 219 219 197 200 202 217 214 225 239 240 246 245 245 250 247 258 264 258 257 254
275 276 276 276 279 285 294 297 298 299 297 309 331 318 324 303 304 274 267 257 240 243 214 214 211 204 218 198 217 229 198 229 210 214 205 221 223 250 237 258 251 251 268 259 253 260 265 257 257
276 272 274 276 275 275 284 292 295 310 301 307 336 335 316 296 294 281 261 241 228 232 236 227 207 211 206 199 203 203 233 205 200 214 217 216 242 236 240 245 254 258 262 261 269 270 277 266 259
274 274 273 275 278 276 280 279 288 290 306 321 345 340 320 306 314 271 260 250 221 234 242 213 226 218 207 223 211 215 216 228 223 230 228 229 226 248 256 255 260 262 267 269 268 279 270 277 280
273 272 273 274 282 284 291 276 308 306 313 307 308 343 327 297 294 284 263 250 251 246 224 232 221 206 224 208 212 218 220 215 224 229 233 243 228 235 235 266 254 259 273 276 278 277 288 293 286
272 274 269 277 281 280 280 267 279 288 310 301 306 333 329 326 304 304 272 254 241 233 274 227 230 222 215 223 222 225 225 236 237 242 249 249 236 268 261 272 277 264 290 268 270 274 275 285 294
271 275 273 276 270 286 285 281 296 280 304 298 302 328 334 314 307 328 285 260 248 237 232 227 234 229 224 234 217 224 241 246 234 249 258 246 248 251 250 277 281 260 290 271 279 289 287 298 294
272 268 271 274 277 283 285 262 289 285 289 298 300 309 332 335 305 320 293 270 247 242 229 230 242 223 237 229 230 233 243 248 244 241 261 268 244 237 244 284 272 264 263 277 288 288 278 262 297
263 269 267 273 265 274 290 280 267 277 316 288 297 305 321 338 335 306 322 299 268 247 244 233 231 239 226 225 219 232 228 251 233 240 246 270 259 246 263 279 268 262 276 284 291 289 277 276 279
264 266 268 264 257 269 289 287 260 274 320 284 291 300 345 338 329 324 342 314 288 247 240 240 227 238 237 228 236 229 229 240 260 256 247 258 265 256 243 261 275 262 273 294 276 279 286 286 285
255 262 265 270 266 270 286 286 258 285 280 312 288 293 316 337 329 327 307 325 296 263 240 242 239 239 236 242 232 241 231 242 239 246 261 248 246 273 264 272 277 275 289 289 277 292 287 288 288
252 257 263 263 264 268 276 279 261 296 267 293 293 306 303 340 330 329 328 337 304 291 278 244 248 245 239 237 245 231 246 245 244 241 258 257 254 261 270 273 266 276 284 277 277 285 285 293 287
249 257 257 254 256 267 263 273 288 267 283 268 278 332 292 332 329 323 321 336 306 290 282 260 250 246 245 243 237 238 245 236 244 244 252 264 252 251 275 267 268 271 279 274 283 284 288 291 284
250 248 247 248 252 258 257 256 266 294 255 269 270 321 300 324 339 322 316 329 337 308 296 275 262 251 249 250 246 247 239 241 247 247 246 249 257 264 266 266 270 274 273 276 276 280 282 287 286
248 245 247 246 248 249 261 250 267 270 272 297 267 298 282 301 338 326 301 307 332 315 288 286 273 262 256 256 259 253 250 239 242 244 245 247 251 253 263 261 266 264 270 270 273 274 278 282 287
245 247 254 250 242 250 259 257 272 274 284 296 294 306 277 317 297 332 315 311 302 317 312 276 280 277 265 252 251 254 247 243 239 242 245 244 251 253 260 265 266 265 269 269 272 272 274 280 283
247 247 245 242 245 243 248 253 271 269 286 274 271 300 274 279 284 326 285 311 298 296 316 308 269 263 265 258 250 248 250 245 244 244 254 251 249 257 259 259 262 265 270 274 275 276 274 283 282
245 244 247 242 235 236 245 256 265 267 274 275 283 275 295 275 307 308 314 290 307 293 287 313 305 267 251 250 252 255 242 247 245 247 246 248 251 255 258 260 264 265 270 269 272 275 278 283 286
242 245 245 242 241 239 242 250 260 264 275 279 270 282 279 271 292 283 308 300 297 279 292 283 308 301 259 256 246 239 251 247 246 254 255 258 260 261 263 266 268 264 268 267 274 273 274 277 284
242 243 244 245 245 236 246 243 254 273 273 271 277 279 284 289 274 276 280 302 295 266 273 288 282 301 302 257 264 252 242 250 257 252 258 257 262 261 263 264 267 269 267 273 274 273 285 290 283